DW8320 Weather Reports


time (UTC)temp
C
wind
direction
speed
KPH
gust
KPH
rain 1hr
cm
rain 24hr
cm
rain mn
cm
humidity
%
barometer
mb
20260902212552 35 155 0.0 4.8 0.00 0.00 0.00 48 1014.6
20260902212043 35 269 0.0 3.2 0.00 0.00 0.00 50 1014.6
20260902211532 35 240 0.0 3.2 0.00 0.00 0.00 49 1014.6
20260902211027 35 30 0.0 3.2 0.00 0.00 0.00 46 1014.7
20260902210507 35 308 0.0 4.8 0.00 0.00 0.00 48 1014.7
20260902210058 35 323 0.0 8.0 0.00 0.00 0.00 47 1014.7
20260902205531 35 116 0.0 8.0 0.00 0.00 0.00 48 1014.8
20260902205015 35 68 0.0 0.0 0.00 0.00 0.00 49 1014.9
20260902204602 35 207 0.0 3.2 0.00 0.00 0.00 46 1014.9
20260902204052 36 76 0.0 3.2 0.00 0.00 0.00 46 1014.9
20260902203540 36 250 0.0 3.2 0.00 0.00 0.00 47 1015.0
20260902203027 36 273 0.0 3.2 0.00 0.00 0.00 46 1014.9
20260902202508 35 292 0.0 3.2 0.00 0.00 0.00 48 1014.9
20260902202056 35 213 0.0 4.8 0.00 0.00 0.00 47 1015.0
20260902201553 35 293 0.0 4.8 0.00 0.00 0.00 48 1014.9
20260902201046 35 11 0.0 3.2 0.00 0.00 0.00 48 1015.0
20260902200530 35 167 0.0 3.2 0.00 0.00 0.00 48 1015.0
20260902200136 35 90 0.0 3.2 0.00 0.00 0.00 47 1015.0
20260902195547 35 4 0.0 3.2 0.00 0.00 0.00 51 1015.1
20260902195035 35 174 0.0 4.8 0.00 0.00 0.00 49 1015.2
20260902194521 35 133 0.0 6.4 0.00 0.00 0.00 48 1015.3
20260902194006 35 58 0.0 6.4 0.00 0.00 0.00 48 1015.2
20260902193558 35 219 1.6 6.4 0.00 0.00 0.00 46 1015.4
20260902193048 36 323 1.6 6.4 0.00 0.00 0.00 45 1015.4
20260902192532 36 237 0.0 3.2 0.00 0.00 0.00 48 1015.5
20260902192020 36 276 0.0 3.2 0.00 0.00 0.00 48 1015.6
20260902191506 36 251 1.6 4.8 0.00 0.00 0.00 48 1015.6
20260902191057 36 243 0.0 6.4 0.00 0.00 0.00 45 1015.7
20260902190545 36 321 0.0 6.4 0.00 0.00 0.00 48 1015.8
20260902190012 36 251 0.0 1.6 0.00 0.00 0.00 47 1015.8
20260902185602 35 239 0.0 3.2 0.00 0.00 0.00 47 1015.8
20260902185052 35 94 0.0 6.4 0.00 0.00 0.00 45 1015.8
20260902184546 35 313 0.0 6.4 0.00 0.00 0.00 46 1015.8
20260902184037 36 269 0.0 4.8 0.00 0.00 0.00 45 1015.8
20260902183526 36 129 0.0 4.8 0.00 0.00 0.00 46 1015.8
20260902183014 36 226 1.6 4.8 0.00 0.00 0.00 48 1016.0
20260902182553 36 101 0.0 3.2 0.00 0.00 0.00 49 1016.0
20260902182046 35 136 0.0 3.2 0.00 0.00 0.00 49 1016.0
20260902181532 35 210 0.0 9.7 0.00 0.00 0.00 50 1016.0
20260902181018 35 343 0.0 9.7 0.00 0.00 0.00 46 1016.0
20260902180503 35 262 0.0 4.8 0.00 0.00 0.00 49 1016.1
20260902180056 35 115 0.0 6.4 0.00 0.00 0.00 48 1016.2
20260902175534 34 264 0.0 6.4 0.00 0.00 0.00 52 1016.2
20260902175022 34 176 1.6 4.8 0.00 0.00 0.00 54 1016.3
20260902174506 34 46 0.0 4.8 0.00 0.00 0.00 50 1016.3
20260902174054 34 36 0.0 3.2 0.00 0.00 0.00 51 1016.4
20260902173546 34 354 1.6 3.2 0.00 0.00 0.00 52 1016.5
20260902173058 34 327 0.0 3.2 0.00 0.00 0.00 54 1016.4
20260902172524 35 332 0.0 3.2 0.00 0.00 0.00 52 1016.4
20260902172009 35 25 0.0 3.2 0.00 0.00 0.00 49 1016.5
20260902171602 35 245 0.0 3.2 0.00 0.00 0.00 51 1016.6
20260902171043 35 250 0.0 1.6 0.00 0.00 0.00 55 1016.6
20260902170529 35 41 0.0 1.6 0.00 0.00 0.00 55 1016.6
20260902170135 34 218 0.0 1.6 0.00 0.00 0.00 54 1016.7
20260902165546 34 77 0.0 11.3 0.00 0.00 0.00 52 1016.8
20260902165039 34 30 0.0 11.3 0.00 0.00 0.00 54 1016.8
20260902164525 34 302 0.0 1.6 0.00 0.00 0.00 56 1016.9
20260902164004 34 322 0.0 6.4 0.00 0.00 0.00 54 1016.9
20260902163554 34 350 0.0 6.4 0.00 0.00 0.00 54 1016.9
20260902163041 34 353 0.0 6.4 0.00 0.00 0.00 53 1016.8
20260902162532 33 322 0.0 6.4 0.00 0.00 0.00 54 1016.9
20260902162024 33 142 0.0 9.7 0.00 0.00 0.00 53 1016.9
20260902161515 33 205 0.0 9.7 0.00 0.00 0.00 54 1017.0
20260902161053 33 197 0.0 3.2 0.00 0.00 0.00 60 1017.0
20260902160541 33 302 0.0 3.2 0.00 0.00 0.00 54 1016.9
20260902160010 33 282 0.0 6.4 0.00 0.00 0.00 56 1017.0
20260902155605 33 146 0.0 6.4 0.00 0.00 0.00 57 1017.0
20260902155052 33 147 0.0 4.8 0.00 0.00 0.00 58 1017.1
20260902154545 33 238 0.0 3.2 0.00 0.00 0.00 56 1017.0
20260902154031 33 263 0.0 1.6 0.00 0.00 0.00 60 1017.1
20260902153508 33 113 0.0 3.2 0.00 0.00 0.00 57 1017.2
20260902153052 32 338 0.0 3.2 0.00 0.00 0.00 60 1017.1
20260902152541 32 110 0.0 1.6 0.00 0.00 0.00 61 1017.2
20260902152029 32 109 0.0 4.8 0.00 0.00 0.00 59 1017.2
20260902151508 32 11 0.0 1.6 0.00 0.00 0.00 60 1017.2
20260902151004 32 115 0.0 1.6 0.00 0.00 0.00 61 1017.3
20260902150552 32 120 0.0 3.2 0.00 0.00 0.00 62 1017.3
20260902150042 31 28 0.0 3.2 0.00 0.00 0.00 62 1017.3
20260902145502 31 326 0.0 3.2 0.00 0.00 0.00 65 1017.3
20260902145051 31 104 0.0 3.2 0.00 0.00 0.00 63 1017.3
20260902144539 31 97 0.0 1.6 0.00 0.00 0.00 63 1017.3
20260902144030 31 58 0.0 1.6 0.00 0.00 0.00 67 1017.3
20260902143518 31 60 0.0 1.6 0.00 0.00 0.00 66 1017.3
20260902143103 30 56 0.0 1.6 0.00 0.00 0.00 67 1017.3
20260902142546 30 42 0.0 6.4 0.00 0.00 0.00 69 1017.3
20260902142033 30 207 0.0 6.4 0.00 0.00 0.00 67 1017.2
20260902141520 30 97 0.0 1.6 0.00 0.00 0.00 70 1017.2
20260902141106 30 338 0.0 3.2 0.00 0.00 0.00 69 1017.2
20260902140550 29 64 0.0 3.2 0.00 0.00 0.00 69 1017.3
20260902140042 28 96 0.0 1.6 0.00 0.00 0.00 70 1017.3
20260902135506 28 93 0.0 3.2 0.00 0.00 0.00 70 1017.3
20260902135058 28 35 0.0 3.2 0.00 0.00 0.00 71 1017.3
20260902134548 28 110 0.0 1.6 0.00 0.00 0.00 74 1017.3
20260902134040 28 91 0.0 1.6 0.00 0.00 0.00 77 1017.4
20260902133530 27 91 0.0 1.6 0.00 0.00 0.00 76 1017.4
20260902133022 27 93 0.0 1.6 0.00 0.00 0.00 79 1017.3
20260902132506 26 88 0.0 1.6 0.00 0.00 0.00 80 1017.2
20260902132056 26 102 0.0 1.6 0.00 0.00 0.00 81 1017.3
20260902131553 26 102 0.0 1.6 0.00 0.00 0.00 81 1017.2
20260902131034 25 113 0.0 0.0 0.00 0.00 0.00 86 1017.2
20260902130520 25 113 0.0 0.0 0.00 0.00 0.00 85 1017.3
20260902130104 24 113 0.0 0.0 0.00 0.00 0.00 87 1017.2
20260902125540 24 113 0.0 0.0 0.00 0.00 0.00 89 1017.2
20260902125030 23 113 0.0 0.0 0.00 0.00 0.00 91 1017.3
20260902124520 23 113 0.0 0.0 0.00 0.00 0.00 93 1017.3
20260902124004 23 113 0.0 0.0 0.00 0.00 0.00 94 1017.2
20260902123556 22 113 0.0 0.0 0.00 0.00 0.00 95 1017.2
20260902123109 22 113 0.0 0.0 0.00 0.00 0.00 96 1017.1
20260902122532 22 113 0.0 0.0 0.00 0.00 0.00 96 1017.1
20260902122015 21 113 0.0 0.0 0.00 0.00 0.00 96 1017.1
20260902121506 21 113 0.0 0.0 0.00 0.00 0.00 96 1017.1
20260902121055 21 113 0.0 0.0 0.00 0.00 0.00 96 1017.0
20260902120536 21 113 0.0 0.0 0.00 0.00 0.00 96 1017.0
20260902120005 21 113 0.0 0.0 0.00 0.00 0.00 96 1017.1
20260902115557 21 113 0.0 0.0 0.00 0.00 0.00 96 1017.0
20260902115044 20 113 0.0 0.0 0.00 0.00 0.00 96 1016.9
20260902114539 20 113 0.0 0.0 0.00 0.00 0.00 96 1016.9
20260902114012 20 113 0.0 0.0 0.00 0.00 0.00 96 1016.8
20260902113604 20 113 0.0 0.0 0.00 0.00 0.00 96 1016.8
20260902113053 20 113 0.0 0.0 0.00 0.00 0.00 96 1016.7
20260902112544 20 113 0.0 0.0 0.00 0.00 0.00 96 1016.7
20260902112031 20 113 0.0 0.0 0.00 0.00 0.00 96 1016.6
20260902111515 20 113 0.0 0.0 0.00 0.00 0.00 96 1016.5
20260902111005 20 113 0.0 0.0 0.00 0.00 0.00 96 1016.5
20260902110551 20 113 0.0 0.0 0.00 0.00 0.00 96 1016.5
20260902110053 20 113 0.0 0.0 0.00 0.00 0.00 96 1016.5
20260902105524 20 113 0.0 0.0 0.00 0.00 0.00 96 1016.5
20260902105002 20 113 0.0 0.0 0.00 0.00 0.00 96 1016.7
20260902104553 20 113 0.0 0.0 0.00 0.00 0.00 95 1016.6
20260902104040 20 113 0.0 0.0 0.00 0.00 0.00 95 1016.6
20260902103530 20 113 0.0 0.0 0.00 0.00 0.00 95 1016.6
20260902103012 20 113 0.0 0.0 0.00 0.00 0.00 95 1016.6
20260902102600 20 113 0.0 0.0 0.00 0.00 0.00 95 1016.6
20260902102054 20 113 0.0 0.0 0.00 0.00 0.00 95 1016.5
20260902101553 20 113 0.0 0.0 0.00 0.00 0.00 95 1016.5
20260902101034 20 113 0.0 0.0 0.00 0.00 0.00 95 1016.5
20260902100516 20 113 0.0 0.0 0.00 0.00 0.00 95 1016.5
20260902100109 20 113 0.0 0.0 0.00 0.00 0.00 95 1016.5
20260902095544 20 113 0.0 0.0 0.00 0.00 0.00 95 1016.4
20260902095036 20 113 0.0 0.0 0.00 0.00 0.00 95 1016.4
20260902094526 20 113 0.0 0.0 0.00 0.00 0.00 95 1016.4
20260902094008 20 113 0.0 0.0 0.00 0.00 0.00 95 1016.4
20260902093556 20 113 0.0 0.0 0.00 0.00 0.00 95 1016.4
20260902093048 21 113 0.0 0.0 0.00 0.00 0.00 95 1016.4
20260902092534 20 113 0.0 0.0 0.00 0.00 0.00 95 1016.4
20260902092018 21 113 0.0 0.0 0.00 0.00 0.00 95 1016.4
20260902091509 21 113 0.0 0.0 0.00 0.00 0.00 95 1016.4
20260902091056 21 113 0.0 0.0 0.00 0.00 0.00 95 1016.3
20260902090543 21 113 0.0 0.0 0.00 0.00 0.00 95 1016.3
20260902090010 21 113 0.0 0.0 0.00 0.00 0.00 95 1016.3
20260902085502 21 113 0.0 0.0 0.00 0.00 0.00 95 1016.2
20260902085046 21 113 0.0 0.0 0.00 0.00 0.00 95 1016.2
20260902084546 21 113 0.0 0.0 0.00 0.00 0.00 95 1016.1
20260902084024 21 113 0.0 0.0 0.00 0.00 0.00 95 1016.0
20260902083504 21 113 0.0 0.0 0.00 0.00 0.00 95 1015.8
20260902083055 21 113 0.0 0.0 0.00 0.00 0.00 95 1015.8
20260902082540 21 113 0.0 0.0 0.00 0.00 0.00 95 1015.8
20260902082023 21 113 0.0 0.0 0.00 0.00 0.00 95 1015.8
20260902081517 21 113 0.0 0.0 0.00 0.00 0.00 95 1015.8
20260902081050 21 113 0.0 0.0 0.00 0.00 0.00 95 1015.7
20260902080538 21 113 0.0 0.0 0.00 0.00 0.00 95 1015.6
20260902080006 21 113 0.0 0.0 0.00 0.00 0.00 95 1015.7
20260902075555 21 113 0.0 0.0 0.00 0.00 0.00 95 1015.7
20260902075046 21 113 0.0 0.0 0.00 0.00 0.00 95 1015.7
20260902074532 21 113 0.0 0.0 0.00 0.00 0.00 95 1015.6
20260902074015 21 113 0.0 0.0 0.00 0.00 0.00 95 1015.7
20260902073506 21 113 0.0 0.0 0.00 0.00 0.00 94 1015.7
20260902073056 21 113 0.0 0.0 0.00 0.00 0.00 94 1015.7
20260902072543 21 113 0.0 0.0 0.00 0.00 0.00 94 1015.7
20260902072029 21 113 0.0 0.0 0.00 0.00 0.00 94 1015.6
20260902071512 21 113 0.0 0.0 0.00 0.00 0.00 94 1015.6
20260902071007 21 113 0.0 0.0 0.00 0.00 0.00 94 1015.6
20260902070558 21 113 0.0 0.0 0.00 0.00 0.00 94 1015.6
20260902070052 21 113 0.0 0.0 0.00 0.00 0.00 94 1015.7
20260902065516 21 113 0.0 0.0 0.00 0.00 0.00 94 1015.6
20260902065007 21 113 0.0 0.0 0.00 0.00 0.00 94 1015.7
20260902064557 21 113 0.0 0.0 0.00 0.00 0.00 94 1015.6
20260902064046 21 113 0.0 0.0 0.00 0.00 0.00 94 1015.6
20260902063534 21 113 0.0 0.0 0.00 0.00 0.00 94 1015.6
20260902063017 21 113 0.0 0.0 0.00 0.00 0.00 94 1015.6
20260902062505 21 113 0.0 0.0 0.00 0.00 0.00 94 1015.7
20260902062054 21 113 0.0 0.0 0.00 0.00 0.00 93 1015.6
20260902061606 21 113 0.0 0.0 0.00 0.00 0.00 94 1015.7
20260902061031 21 113 0.0 0.0 0.00 0.00 0.00 93 1015.7
20260902060514 21 113 0.0 0.0 0.00 0.00 0.00 93 1015.7
20260902060115 21 113 0.0 0.0 0.00 0.00 0.00 93 1015.6
20260902055538 21 113 0.0 0.0 0.00 0.00 0.00 93 1015.7
20260902055024 21 113 0.0 0.0 0.00 0.00 0.00 93 1015.7
20260902054511 22 113 0.0 0.0 0.00 0.00 0.00 93 1015.7
20260902054000 22 113 0.0 0.0 0.00 0.00 0.00 93 1015.6
20260902053550 22 113 0.0 0.0 0.00 0.00 0.00 93 1015.7
20260902053043 22 113 0.0 0.0 0.00 0.00 0.00 92 1015.7
20260902052538 22 113 0.0 0.0 0.00 0.00 0.00 92 1015.8
20260902052024 22 113 0.0 0.0 0.00 0.00 0.00 92 1015.8
20260902051515 22 113 0.0 0.0 0.00 0.00 0.00 92 1015.7
20260902051100 22 113 0.0 0.0 0.00 0.00 0.00 92 1015.8
20260902050547 22 113 0.0 0.0 0.00 0.00 0.00 92 1015.8
20260902050015 22 113 0.0 0.0 0.00 0.00 0.00 91 1015.8
20260902045505 22 113 0.0 0.0 0.00 0.00 0.00 91 1015.7
20260902045059 22 113 0.0 0.0 0.00 0.00 0.00 90 1015.7
20260902044543 22 113 0.0 0.0 0.00 0.00 0.00 90 1015.7
20260902044035 22 113 0.0 0.0 0.00 0.00 0.00 90 1015.7
20260902043518 22 113 0.0 0.0 0.00 0.00 0.00 90 1015.7
20260902043001 22 113 0.0 0.0 0.00 0.00 0.00 90 1015.7
20260902042553 22 113 0.0 0.0 0.00 0.00 0.00 90 1015.7
20260902042040 22 113 0.0 0.0 0.00 0.00 0.00 89 1015.7
20260902041545 22 113 0.0 0.0 0.00 0.00 0.00 90 1015.7
20260902041017 22 113 0.0 0.0 0.00 0.00 0.00 90 1015.7
20260902040556 22 113 0.0 0.0 0.00 0.00 0.00 89 1015.8
20260902040044 22 113 0.0 0.0 0.00 0.00 0.00 89 1015.8
20260902035509 22 113 0.0 0.0 0.00 0.00 0.00 89 1015.8
20260902035105 23 113 0.0 0.0 0.00 0.00 0.00 88 1015.8
20260902034546 23 113 0.0 0.0 0.00 0.00 0.00 89 1015.8
20260902034037 23 113 0.0 0.0 0.00 0.00 0.00 88 1015.8
20260902033526 23 113 0.0 0.0 0.00 0.00 0.00 88 1015.7
20260902033008 23 113 0.0 0.0 0.00 0.00 0.00 88 1015.7
20260902032511 23 113 0.0 0.0 0.00 0.00 0.00 87 1015.7
20260902032002 23 113 0.0 0.0 0.00 0.00 0.00 87 1015.7
20260902031551 23 113 0.0 0.0 0.00 0.00 0.00 86 1015.7
20260902031040 23 113 0.0 0.0 0.00 0.00 0.00 86 1015.6
20260902030527 23 113 0.0 0.0 0.00 0.00 0.00 85 1015.6
20260902030135 23 113 0.0 0.0 0.00 0.00 0.00 85 1015.6
20260902025552 24 113 0.0 0.0 0.00 0.00 0.00 85 1015.7
20260902025044 24 113 0.0 0.0 0.00 0.00 0.00 84 1015.7
20260902024536 24 113 0.0 0.0 0.00 0.00 0.00 84 1015.7
20260902024026 24 113 0.0 0.0 0.00 0.00 0.00 83 1015.7
20260902023508 24 113 0.0 0.0 0.00 0.00 0.00 82 1015.7
20260902023100 24 113 0.0 0.0 0.00 0.00 0.00 83 1015.6
20260902022551 24 113 0.0 0.0 0.00 0.00 0.00 83 1015.7
20260902022041 24 113 0.0 0.0 0.00 0.00 0.00 83 1015.7
20260902021530 25 113 0.0 0.0 0.00 0.00 0.00 82 1015.6
20260902021011 25 113 0.0 0.0 0.00 0.00 0.00 81 1015.6
20260902020600 25 113 0.0 0.0 0.00 0.00 0.00 80 1015.6
20260902020055 25 113 0.0 0.0 0.00 0.00 0.00 81 1015.6
20260902015524 24 113 0.0 0.0 0.00 0.00 0.00 82 1015.6
20260902015008 24 113 0.0 0.0 0.00 0.00 0.00 83 1015.6
20260902014606 24 113 0.0 0.0 0.00 0.00 0.00 84 1015.6
20260902014056 24 113 0.0 0.0 0.00 0.00 0.00 84 1015.6
20260902013547 24 113 0.0 0.0 0.00 0.00 0.00 83 1015.6
20260902013038 25 113 0.0 0.0 0.00 0.00 0.00 83 1015.6
20260902012517 25 113 0.0 0.0 0.00 0.00 0.00 82 1015.5
20260902012006 25 113 0.0 0.0 0.00 0.00 0.00 82 1015.4
20260902011555 25 113 0.0 0.0 0.00 0.00 0.00 81 1015.4
20260902011049 25 113 0.0 0.0 0.00 0.00 0.00 80 1015.3
20260902010532 25 113 0.0 0.0 0.00 0.00 0.00 80 1015.3
20260902010137 25 113 0.0 0.0 0.00 0.00 0.00 78 1015.2
20260902005546 26 113 0.0 0.0 0.00 0.00 0.00 77 1015.2
20260902005037 26 113 0.0 0.0 0.00 0.00 0.00 76 1015.1
20260902004523 26 113 0.0 0.0 0.00 0.00 0.00 74 1015.2
20260902004004 26 113 0.0 0.0 0.00 0.00 0.00 74 1015.1
20260902003557 26 113 0.0 0.0 0.00 0.00 0.00 74 1015.1
20260902003042 26 113 0.0 0.0 0.00 0.00 0.00 73 1015.1
20260902002536 27 113 0.0 0.0 0.00 0.00 0.00 72 1015.1
20260902002031 27 113 0.0 0.0 0.00 0.00 0.00 71 1015.1
20260902001504 27 113 0.0 0.0 0.00 0.00 0.00 71 1015.2
20260902001056 27 113 0.0 0.0 0.00 0.00 0.00 71 1015.2
20260902000544 27 113 0.0 0.0 0.00 0.00 0.00 70 1015.3
20260902000025 27 113 0.0 0.0 0.00 0.00 0.00 69 1015.3
20260901235507 28 113 0.0 0.0 0.00 0.00 0.00 67 1015.3
20260901235058 28 113 0.0 0.0 0.00 0.00 0.00 67 1015.3
20260901234549 28 113 0.0 0.0 0.00 0.00 0.00 66 1015.4
20260901234046 28 113 0.0 0.0 0.00 0.00 0.00 66 1015.3
20260901233536 28 113 0.0 0.0 0.00 0.00 0.00 65 1015.3
20260901233023 28 113 0.0 0.0 0.00 0.00 0.00 65 1015.4
20260901232515 29 113 0.0 0.0 0.00 0.00 0.00 66 1015.4
20260901232057 29 113 0.0 0.0 0.00 0.00 0.00 65 1015.4
20260901231545 30 110 0.0 0.0 0.00 0.00 0.00 65 1015.5
20260901231036 30 110 0.0 0.0 0.00 0.00 0.00 62 1015.3
20260901230520 30 110 0.0 0.0 0.00 0.00 0.00 62 1015.4
20260901230105 30 110 0.0 3.2 0.00 0.00 0.00 58 1015.4
20260901225540 31 110 0.0 3.2 0.00 0.00 0.00 56 1015.4
20260901225032 31 259 0.0 1.6 0.00 0.00 0.00 56 1015.3
20260901224523 31 216 0.0 3.2 0.00 0.00 0.00 54 1015.3
20260901224000 31 45 0.0 4.8 0.00 0.00 0.00 58 1015.3
20260901223555 31 46 0.0 4.8 0.00 0.00 0.00 58 1015.3
20260901223102 31 288 0.0 0.0 0.00 0.00 0.00 55 1015.3
20260901222533 31 295 0.0 0.0 0.00 0.00 0.00 55 1015.2
20260901222018 32 78 0.0 0.0 0.00 0.00 0.00 56 1015.2
20260901221602 32 78 0.0 1.6 0.00 0.00 0.00 56 1015.3
20260901221054 32 153 0.0 3.2 0.00 0.00 0.00 53 1015.2
20260901220538 32 122 0.0 3.2 0.00 0.00 0.00 56 1015.1
20260901220010 32 58 0.0 3.2 0.00 0.00 0.00 55 1015.2
20260901215501 32 54 0.0 3.2 0.00 0.00 0.00 53 1015.1
20260901215053 32 254 0.0 1.6 0.00 0.00 0.00 54 1015.2
20260901214540 33 254 0.0 1.6 0.00 0.00 0.00 52 1015.1
20260901214035 33 248 0.0 4.8 0.00 0.00 0.00 48 1015.1
20260901213510 34 203 0.0 1.6 0.00 0.00 0.00 48 1015.2
20260901213102 34 287 0.0 3.2 0.00 0.00 0.00 48 1015.2